Weather Roundup
Issued by NWS Chicago, IL

Home | Current Version | Previous Version | Graphics & Text | Print | Product List | Glossary On
Versions: 1 2 3 4 5 6 7 8 9 10 11 12 13 14 15 16 17 18 19 20 21 22 23 24 25 26 27 28 29 30 31 32 33 34 35 36 37 38 39 40 41 42 43 44 45 46 47 48 49 50
000
NZUS59 KLOT 201100
HRRLOT

CHICAGO AREA WEATHER ROUNDUP
NATIONAL WEATHER SERVICE CHICAGO/ROMEOVILLE IL
600 AM CDT SAT SEP 20 2014

NOTE: "FAIR" INDICATES FEW OR NO CLOUDS BELOW 12,000 FEET WITH NO
SIGNIFICANT WEATHER AND/OR OBSTRUCTIONS TO VISIBILITY.

* THESE STATIONS ARE NOT UNDER NWS QUALITY CONTROL. THEY ALSO MAY NOT
  REPORT WEATHER SUCH AS PRECIPITATION OR FOG.

ILZ005-006-012>014-019>023-201200-
NORTHEAST ILLINOIS

CITY           SKY/WX    TMP DP  RH WIND       PRES   REMARKS
OHARE          CLOUDY    64  53  67 SW12      29.93R
MIDWAY         CLOUDY    64  54  69 SW15      29.93F
AURORA         CLOUDY    56  52  86 SE3       29.95R
LANSING*       MOCLDY    58  53  83 S9        29.96F
WAUKEGAN       CLOUDY    63  54  72 SW15G21   29.88S
DUPAGE AIRPORT CLOUDY    60  53  77 S7        29.94R
WHEELING       CLOUDY    65  53  65 SW7       29.94R
NORTHERLY IS     N/A     64  52  64 S8          N/A
$$

WIZ051-052-058>065-066-070>072-201200-
SOUTHEAST WISCONSIN

CITY           SKY/WX    TMP DP  RH WIND       PRES   REMARKS
MILWAUKEE      CLOUDY    64  56  75 SW13      29.83F
KENOSHA*       CLOUDY    64  56  75 SW20G25   29.87F
RACINE*        CLOUDY    64  55  72 SW9G20    29.87F
WAUKESHA       CLEAR     61  57  88 SW8       29.84F
$$

INZ001>003-010>013-019-020-201200-
NORTHWEST INDIANA

CITY           SKY/WX    TMP DP  RH WIND       PRES   REMARKS
GARY*          PTCLDY    63  54  72 S14       29.95S
MICHIGAN CITY* NOT AVBL
RENSSELAER*    NOT AVBL
VALPARAISO     MOCLDY    57  52  83 S7        29.99R
$$

LMZ740>746-201200-
SOUTHERN LAKE MICHIGAN

STATION/POSITION TIME  SKY/WX   TEMP WIND        PRES    VSBY
                                AIR  DIR/SP/G
                 (UTC)          (F)  (DEG/KT/KT) (MB)    (MI)
HARRISON CRIB    1000            65  200/ 22/ 27   N/A
BURNHAM HARBOR   1100            64  170/ 10/ 12   N/A
CALUMET HARBOR   1000            63  200/ 10/ 12 1012.8R
BURNS HARBOR     NOT AVBL
MICHIGAN CITY    1000            62  160/ 16/ 22   N/A
$$

ABBREVIATIONS USED IN REMARKS
   TC - TEMPERATURE IN CELSIUS
  WCI - WIND CHILL INDEX
   HX - HEAT INDEX
  VSB - VISIBILITY
$$


USA.gov is the U.S. government's official web portal to all federal, state and local government web resources and services.